www.pogodaiklimat.ru
ПОГОДА в Тайябасе
Время
(UTC), дата
21 23.10
00 24.10
03 24.10
06 24.10
09 24.10
12 24.10
15 24.10
18 24.10
21 24.10
00 25.10
03 25.10
06 25.10
09 25.10
12 25.10
15 25.10
18 25.10
21 25.10
00 26.10
03 26.10
06 26.10
09 26.10
12 26.10
15 26.10
18 26.10
21 26.10
00 27.10
03 27.10
06 27.10
09 27.10
12 27.10
15 27.10
18 27.10
21 27.10
00 28.10
03 28.10
06 28.10
09 28.10
12 28.10
15 28.10
18 28.10
21 28.10
00 29.10
03 29.10
06 29.10
09 29.10
12 29.10
15 29.10
18 29.10
21 29.10
00 30.10
03 30.10
06 30.10
09 30.10
12 30.10
15 30.10
Ветер
(напр.,м/с)
Видим. Явления Облачность Т
(С)
Тd
(С)
f
(%)
Тe
(С)
Тes
(С)
Комфортность P
(гПа)
Po
(гПа)
Тmin
(С)
Tmax
(С)
R
(мм)
R24
(мм)
S
(см)
штиль 0 20 км 5/3 540 м
[Cu med, cong Ac cuf]
+23.8 +22.4 92 +31 +31 очень
душно
1008.5 990.7
СВ 2 15 км мгла 6/1 600 м
[Cu med, cong Ac trans Cs]
+26.2 +24.1 88 +36 +39 очень
душно
1010.0 992.2 +23.0 36 36.0
Ю 1 12 км мгла 10/6 500 м
[Cb calv Ac trans Cs]
+29.6 +25.6 79 +44 +47 опасность
перегрева
1009.2 951.1
штиль 0 15 км гроза без осадков {ливн. дождь} 10/4 500 м
[Cb cap Cs]
+26.6 +25.5 94 +39 +47 очень
душно
1007.3 990.4 32
З 1 15 км в посл. час гроза {ливн. дождь} 10/4 540 м
[Cu med, cong Ac und]
+27.2 +25.6 91 +40 +40 очень
душно
1007.7 950.0 3
С 2 12 км слаб. ливневой дождь {гроза} 8/4 500 м
[Cb cap Ac As]
+25.6 +24.4 93 +36 +36 очень
душно
1009.2 1001.7 +31.0 7
штиль 0 10 км слаб. дождь 10/5 540 м
[Sc As op]
+24.0 +23.3 96 +32 +32 очень
душно
1010.4 992.5 12
В 2 10 км слаб. дождь {гроза} 10/5 500 м
[Cb cap Ac As]
+24.2 +23.2 94 +32 +32 очень
душно
1008.2 990.4 22
С 3 15 км в посл. час гроза {ливн. дождь} 10/1 540 м
[Cu med, cong Ac und]
+24.8 +23.0 90 +33 +33 очень
душно
1007.0 989.3 20
С 4 18 км 9/5 540 м
[Sc Ac As]
+27.7 +23.1 76 +37 +38 очень
душно
1008.4 990.7 +23.5 78 78.0
С 2 15 км в посл. час ливневой дождь 10/4 540 м
[Sc Ac und]
+28.2 +25.0 83 +41 +44 опасность
перегрева
1007.8 990.1 1
С 3 10 км слаб. дождь {гроза} 10/4 500 м
[Cb cap As op]
+25.6 +24.6 94 +36 +37 очень
душно
1004.8 987.1 14
С 2 10 км слаб. дождь 10/5 540 м
[Frnb As op]
+25.2 +24.3 95 +35 +35 очень
душно
1004.5 986.8 12
С 4 10 км в посл. час ливневой дождь 10/4 540 м
[Cu med, cong Ac und]
+25.2 +23.2 89 +34 +34 очень
душно
1002.4 984.8 +29.5 14
С 6
{13}
10 км в посл. час ливневой дождь 10/4 540 м
[Frnb Ac und]
+25.0 +23.8 93 +34 +34 очень
душно
999.6 982.0 29
С 9
{24}
10 км сильн. дождь 10/4 540 м
[Cb calv Ac und Ci sp]
+24.4 +22.9 91 +32 +32 очень
душно
996.5 978.9 74
СВ 4
{24}
10 км сильн. дождь 10/4 540 м
[Sc As op]
+25.0 +23.0 89 +33 +33 очень
душно
998.0 980.4 7
В 4 10 км слаб. дождь 10/4 540 м
[Cu med, cong As op]
+23.5 +22.1 92 +30 +31 очень
душно
1002.6 984.9 +23.0 140 140.0
ЮВ 3 10 км слаб. дождь 10/4 540 м
[Cu med, cong As op]
+23.5 +22.1 92 +30 +32 очень
душно
1003.8 986.1 28
Ю 1 10 км слаб. дождь 10/4 540 м
[Cu med, cong As op]
+24.0 +22.4 91 +31 +33 очень
душно
1003.1 985.4 29
ЮВ 5 15 км осадки на расстоянии {ливн. дождь} 10/4 540 м
[Cu med, cong Ac und]
+23.8 +22.1 90 +31 +31 очень
душно
1003.9 986.2 0.5
ЮВ 2 18 км осадки на расстоянии {ливн. дождь} 10/4 540 м
[Cu med, cong Ac und]
+23.6 +22.1 91 +30 +30 очень
душно
1006.3 988.5 +25.5 0.5
В 1 18 км осадки на расстоянии {ливн. дождь} 10/4 540 м
[Cu med, cong Ac und]
+23.4 +21.7 90 +32 +32 очень
душно
1007.5 989.6 2
СВ 1 18 км {ливн. дождь} 8/4 540 м
[Cu med, cong Ac As]
+23.2 +21.5 90 +31 +31 очень
душно
1006.8 989.0 3
С 1 18 км осадки на расстоянии {ливн. дождь} 10/4 540 м
[Cu med, cong Ac und]
+23.0 +21.6 92 +31 +31 очень
душно
1006.5 988.7 5
С 1 18 км мгла 10/4 540 м
[Cu med, cong Ac und]
+24.0 +22.4 91 +31 +32 очень
душно
1009.1 991.2 +23.0 37 37.0
Ю 2 20 км мгла 10/4 540 м
[Cu med, cong Ac und]
+26.0 +22.7 82 +34 +37 очень
душно
1009.1 991.3
Ю 1 20 км мгла 10/4 540 м
[Cu med, cong Ac und]
+26.5 +23.2 82 +36 +38 очень
душно
1007.8 990.0 0.5
ЮЗ 1 18 км осадки на расстоянии {туман} 9/4 540 м
[Cu med, cong Ac As]
+25.8 +23.1 85 +34 +35 очень
душно
1008.4 990.6
З 1 20 км {туман} 6/3 540 м
[Cu med, cong Ac As]
+25.0 +23.0 89 +33 +33 очень
душно
1010.9 993.0 +28.0
З 1 20 км 6/3 540 м
[Cu med, cong Ac As]
+24.2 +22.8 92 +32 +32 очень
душно
1012.0 994.2
СЗ 1 20 км 6/3 540 м
[Cu med, cong Ac As]
+24.0 +22.6 92 +31 +31 очень
душно
1010.4 992.6
З 1 20 км 6/3 540 м
[Cu med, cong Ac As]
+23.5 +22.1 92 +30 +30 очень
душно
1010.8 993.0
ЮЗ 1 20 км 6/3 600 м
[Cu med, cong Cs]
+27.2 +25.0 88 +39 +42 очень
душно
1012.8 995.0 +22.5 4 4.0
ЮЗ 1 20 км 8/4 600 м
[Cu med, cong Ac As]
+29.4 +25.0 77 +42 +48 опасность
перегрева
1012.2 994.5
В 2 20 км 6/4 600 м
[Cu med, cong Ac As]
+31.2 +24.6 68 +44 +49 опасность
перегрева
1009.8 992.1
ЮЗ 3 15 км гроза, ливневой дождь 10/4 500 м
[Cb cap As op]
+24.0 +22.6 92 +31 +32 очень
душно
1011.9 994.0 58
С 2 15 км слаб. дождь {гроза} 10/5 500 м
[Cb cap As op]
+23.8 +22.7 94 +31 +31 очень
душно
1013.9 996.0 +32.5 108
СВ 2 18 км {ливн. дождь, дождь} 6/4 540 м
[Cu med, cong Ac As]
+24.4 +22.5 89 +32 +32 очень
душно
1013.0 995.1 0.0
С 1 20 км {ливн. дождь} 5/3 600 м
[Cu med, cong Cs]
+23.0 +22.3 96 +31 +31 очень
душно
1012.4 994.5 0.0
С 1 20 км 4/3 600 м
[Cu med, cong Ci sp]
+23.0 +21.6 92 +31 +31 очень
душно
1011.9 994.0
СВ 2 20 км 5/3 600 м
[Cu med, cong Cs]
+28.0 +24.1 79 +39 +41 очень
душно
1013.3 995.5 +22.0 108 108.0
С 1 20 км 6/4 600 м
[Cu med, cong Ac As]
+30.2 +26.1 79 +46 +54 опасность
перегрева
1012.3 994.6
СВ 5 20 км слаб. ливневой дождь 6/4 540 м
[Cu med, cong Ac As]
+30.0 +26.2 80 +45 +48 опасность
перегрева
1010.2 992.5 0.0
С 1 20 км {ливн. дождь} 8/4 540 м
[Cu med, cong Ac As]
+27.0 +24.4 86 +38 +38 очень
душно
1010.8 993.0 0.0
С 2 20 км {ливн. дождь} 4/3 540 м
[Cu med, cong Ac cuf]
+26.3 +23.9 87 +36 +36 очень
душно
1012.0 994.3 +31.5 0.0
С 2 20 км 4/3 540 м
[Cu med, cong Ac cuf]
+25.8 +24.1 90 +36 +36 очень
душно
1011.9 994.2
С 2 20 км 5/3 540 м
[Cu med, cong Ac cuf]
+25.5 +23.5 89 +35 +35 очень
душно
1009.7 992.1
С 2 20 км 4/3 540 м
[Cb calv Ac cuf]
+25.3 +23.6 90 +34 +34 очень
душно
1009.7 992.0
СВ 3 20 км 5/3 540 м
[Cu med, cong Ac cuf Cs]
+27.4 +24.3 83 +38 +40 очень
душно
1011.0 993.3 +25.0 0.0 0.0
СВ 4 20 км {ливн. дождь} 6/4 540 м
[Cu med, cong Ac cuf]
+28.8 +25.2 81 +42 +47 опасность
перегрева
1011.1 993.4
СВ 3 20 км {ливн. дождь} 4/3 540 м
[Cu med, cong Ac cuf]
+30.0 +25.5 77 +44 +50 опасность
перегрева
1008.1 990.5 2
С 2 20 км 6/3 540 м
[Cu med, cong Ac As]
+27.9 +24.1 80 +39 +39 очень
душно
1009.0 991.3
С 2 20 км 8/3 540 м
[Cu med, cong Ac As]
+26.2 +24.6 91 +37 +37 очень
душно
1010.1 992.4 +30.5
СВ 2 20 км в посл. час ливневой дождь 8/4 540 м
[Cu med, cong Ac cuf]
+25.8 +24.1 90 +36 +36 очень
душно
1009.7 992.0 1
Местоположение метеостанции Тайябас (Филиппины): широта 14.03 долгота 121.58 высота над уровнем моря 158 м.
В архиве по умолчанию представлена погода в Тайябасе за последнюю неделю. Архивные данные за месяц целиком и за предыдущие месяцы, начиная с января 2011 года, Вы можете получить, выбрав интересующий диапазон дат из раскрывающегося списка и нажав кнопку "Найти!".
*Определитесь, кто Вы:
Внимание! Время в таблицах - всемирное. Для получения местного времени необходимо прибавить поправку, которая равна 8 ч.
Смотрите также архив погоды в соседних городах и на ближайших метеорологических станциях:
Партнеры нашего сайта:      
Пояснения к столбцам:
  • Ветер - указаны скорость ветра в м/с - средняя за 10 мин, порывы в срок и между сроками (в фигурных скобках) и направление, откуда дует ветер: С - северный,
  • СВ - северо-восточный, В - восточный, ЮВ - юго-восточный, Ю - южный, ЮЗ - юго-западный, З - западный, СЗ - северо-западный.
  • Видимость - горизонтальная дальность видимости в метрах или километрах. При видимости от 1 до 10 км при отсутствии осадков обычно наблюдается дымка, при ухудшении видимости до 1 км и менее - туман. В сухую погоду видимость может ухудшаться дымом, пылью или мглою.
  • Явления - указаны атмосферные явления, наблюдавшиеся в срок или в последний час перед сроком; фигурными скобками обозначены явления, наблюдавшиеся между сроками (за 1-3 часа до срока); квадратными скобками обозначены град или гололедные отложения с указанием их диаметра в мм.
  • Облачность - указаны через наклонную черту общая и нижняя облачность в баллах и высота нижней границы облаков в метрах; квадратными скобками обозначены формы облаков: Ci - перистые, Cs - перисто-слоистые, Cc - перисто-кучевые, Ac - высококучевые, As - высокослоистые, Sc - слоисто-кучевые, Ns - слоисто-дождевые, Cu - кучевые, Cb - кучево-дождевые. Подробнее классификацию облаков см. в Атласе облаков (PDF).
  • T - Температура воздуха - температура, измеренная на высоте 2 м над землей.
  • Td - Температура точки росы - температура, при понижении до которой содержащийся в воздухе водяной пар достигнет насыщения.
  • f - Относительная влажность воздуха - влажноcть воздуха, измеренная на высоте 2 м над землей.
  • Te - Эффективная температура - температура, которую ощущает одетый по сезону человек в тени. Характеристика душности погоды. При расчете учитывается влияние влажности воздуха и скорости ветра на теплоощущения человека.
  • Tes - Эффективная температура на солнце - температура, которую ощущает человек, с поправкой на солнечный нагрев. Характеристика знойности погоды. Зависит от высоты солнца над горизонтом, облачности и скорости ветра. Ночью, в пасмурную погоду, а также при ветре 12 м/с и более поправка равна нулю.
  • P - Атмосферное давление - приведенное к уровню моря атмосферное давление.
  • Po - Атмосферное давление - измеренное на уровне метеостанции атмосферное давление.
  • Tmin - Минимальная температура - минимум температуры воздуха на высоте 2 м над землей.
  • Tmax - Максимальная температура - максимум температуры воздуха на высоте 2 м над землей.
  • R - Количество осадков - Количество выпавших осадков за период времени, мм. При наведении курсора мыши на число - период времени, за который выпало указанное количество осадков.
  • R24 - Количество осадков - Количество выпавших осадков за 24 часа, мм.
  • S - Снежный покров - Высота снежного покрова, см. При наведении курсора мыши на число - состояние снежного покрова и степень покрытия местности в баллах.